Weather History for KI69 - February, 2014

Change the Weather History Date:

Thursday, February 20, 2014

  Actual Average (KLUK) Record (KLUK)
Temperature  
Mean Temperature 54 °F -  
Max Temperature 69 °F 45 °F 69 °F (1983)
Min Temperature 39 °F 27 °F -14 °F (2015)
Degree Days  
Heating Degree Days 11    
Growing Degree Days 4 (Base 50)    
Moisture  
Dew Point 45 °F    
Average Humidity 67    
Maximum Humidity 94    
Minimum Humidity 52    
Precipitation  
Precipitation 0.30 in - - ()
Sea Level Pressure  
Sea Level Pressure 29.77 in    
Wind  
Wind Speed 8 mph (South)    
Max Wind Speed 34 mph    
Max Gust Speed 46 mph    
Visibility 10 miles    
Events Rain    
Averages and records for this station are not official NWS values.
T = Trace of Precipitation, MM = Missing Value Source: NWS Daily Summary

Daily Weather History Graph

Daily Weather History Graph

Search for Another Location

Airport or City:

Trip Planner

Search our weather history database for the weather conditions in past years. The results will help you decide how hot, cold, wet, or windy it might be!

Date:

Astronomy

Feb. 20, 2014 Rise Set
Actual Time 7:21 AM EST 6:19 PM EST
Civil Twilight 6:54 AM EST 6:46 PM EST
Nautical Twilight 6:23 AM EST 7:18 PM EST
Astronomical Twilight 5:52 AM EST 7:48 PM EST
Moon No Moon Rise 10:06 AM EST (2/20)
Length of Visible Light 11h 52m
Length of Day
10h 57m
Waning Gibbous, 71% of the Moon is Illuminated
Feb 20
Waning Gibbous
Feb 22
Last Quarter
Mar 1
New
Mar 8
First Quarter
Mar 16
Full

Hourly Weather History & Observations

Time (EST) Temp. Windchill Dew Point Humidity Pressure Visibility Wind Dir Wind Speed Gust Speed Precip Events Conditions
12:17 AM 39.2 °F 35.9 °F 32.0 °F 75% 30.03 in 10.0 mi ESE 4.6 mph - N/A   Clear
12:36 AM 39.2 °F 35.9 °F 32.0 °F 75% 30.03 in 10.0 mi ESE 4.6 mph - N/A   Clear
12:56 AM 41.0 °F 37.1 °F 30.2 °F 65% 30.03 in 10.0 mi SE 5.8 mph - N/A   Clear
1:17 AM 39.2 °F 35.9 °F 32.0 °F 75% 30.03 in 10.0 mi SE 4.6 mph - N/A   Clear
1:36 AM 41.0 °F 38.0 °F 30.2 °F 65% 30.03 in 10.0 mi SE 4.6 mph - N/A   Clear
1:56 AM 41.0 °F 38.0 °F 30.2 °F 65% 30.03 in 10.0 mi SSE 4.6 mph - N/A   Clear
2:17 AM 39.2 °F 35.9 °F 30.2 °F 70% 30.01 in 10.0 mi SE 4.6 mph - N/A   Clear
2:36 AM 39.2 °F 35.9 °F 30.2 °F 70% 30.01 in 10.0 mi SE 4.6 mph - N/A   Clear
2:56 AM 39.2 °F 35.0 °F 30.2 °F 70% 30.00 in 10.0 mi ESE 5.8 mph - N/A   Clear
3:17 AM 39.2 °F 34.2 °F 30.2 °F 70% 29.99 in 10.0 mi SE 6.9 mph - N/A   Clear
3:36 AM 39.2 °F 34.2 °F 30.2 °F 70% 29.98 in 10.0 mi SE 6.9 mph - N/A   Clear
3:57 AM 39.2 °F 35.9 °F 30.2 °F 70% 29.96 in 10.0 mi ESE 4.6 mph - N/A   Scattered Clouds
4:17 AM 39.2 °F 35.0 °F 30.2 °F 70% 29.95 in 10.0 mi ESE 5.8 mph - N/A   Scattered Clouds
4:36 AM 39.2 °F 34.2 °F 30.2 °F 70% 29.92 in 10.0 mi ESE 6.9 mph - N/A   Scattered Clouds
4:56 AM 41.0 °F 36.4 °F 32.0 °F 70% 29.92 in 10.0 mi SE 6.9 mph - N/A   Clear
5:17 AM 41.0 °F 37.1 °F 32.0 °F 70% 29.92 in 10.0 mi SE 5.8 mph - N/A   Clear
5:36 AM 41.0 °F 37.1 °F 32.0 °F 70% 29.91 in 10.0 mi SE 5.8 mph - N/A   Clear
5:57 AM 41.0 °F 37.1 °F 32.0 °F 70% 29.90 in 10.0 mi ESE 5.8 mph - N/A   Mostly Cloudy
6:17 AM 41.0 °F 38.0 °F 32.0 °F 70% 29.89 in 10.0 mi SE 4.6 mph - N/A   Overcast
6:36 AM 42.8 °F 39.3 °F 32.0 °F 66% 29.88 in 10.0 mi SE 5.8 mph - N/A   Overcast
6:57 AM 42.8 °F 38.0 °F 32.0 °F 66% 29.87 in 10.0 mi SE 8.1 mph - N/A   Overcast
7:16 AM 42.8 °F 38.6 °F 32.0 °F 66% 29.86 in 10.0 mi SSE 6.9 mph - N/A   Overcast
7:36 AM 44.6 °F 41.4 °F 32.0 °F 61% 29.85 in 10.0 mi SE 5.8 mph - N/A   Mostly Cloudy
7:57 AM 44.6 °F 40.7 °F 32.0 °F 61% 29.85 in 10.0 mi SSE 6.9 mph - N/A   Mostly Cloudy
8:16 AM 46.4 °F 42.9 °F 32.0 °F 57% 29.84 in 10.0 mi SSE 6.9 mph - N/A   Overcast
8:37 AM 46.4 °F 41.9 °F 33.8 °F 62% 29.84 in 10.0 mi SSE 9.2 mph - N/A   Overcast
8:57 AM 48.2 °F - 35.6 °F 62% 29.84 in 10.0 mi South 11.5 mph 16.1 mph N/A   Overcast
9:16 AM 51.8 °F - 37.4 °F 58% 29.83 in 10.0 mi South 11.5 mph 19.6 mph N/A   Mostly Cloudy
9:37 AM 51.8 °F - 41.0 °F 67% 29.82 in 10.0 mi South 9.2 mph - N/A   Scattered Clouds
9:57 AM 53.6 °F - 42.8 °F 67% 29.81 in 10.0 mi South 10.4 mph 17.3 mph N/A   Scattered Clouds
10:16 AM 55.4 °F - 44.6 °F 67% 29.80 in 10.0 mi South 10.4 mph 19.6 mph N/A   Clear
10:37 AM 57.2 °F - 46.4 °F 67% 29.79 in 10.0 mi South 13.8 mph 23.0 mph N/A   Scattered Clouds
10:57 AM 59.0 °F - 50.0 °F 72% 29.79 in 10.0 mi SSW 12.7 mph 20.7 mph N/A   Scattered Clouds
11:16 AM 60.8 °F - 50.0 °F 68% 29.79 in 10.0 mi SSW 13.8 mph 21.9 mph N/A   Mostly Cloudy
11:37 AM 60.8 °F - 51.8 °F 72% 29.78 in 10.0 mi SSW 9.2 mph 19.6 mph N/A   Scattered Clouds
11:57 AM 62.6 °F - 53.6 °F 72% 29.78 in 10.0 mi SSW 12.7 mph 23.0 mph N/A   Mostly Cloudy
12:16 PM 62.6 °F - 53.6 °F 72% 29.75 in 10.0 mi South 15.0 mph 21.9 mph N/A   Mostly Cloudy
12:37 PM 66.2 °F - 53.6 °F 64% 29.74 in 10.0 mi SSW 20.7 mph 27.6 mph N/A   Scattered Clouds
12:56 PM 68.0 °F - 53.6 °F 60% 29.73 in 10.0 mi SSW 13.8 mph 23.0 mph N/A   Scattered Clouds
1:16 PM 68.0 °F - 53.6 °F 60% 29.71 in 10.0 mi SW 16.1 mph 29.9 mph N/A   Overcast
1:37 PM 68.0 °F - 53.6 °F 60% 29.71 in 10.0 mi SSW 15.0 mph 28.8 mph N/A   Overcast
1:56 PM 68.0 °F - 53.6 °F 60% 29.70 in 10.0 mi SSW 17.3 mph 25.3 mph N/A   Overcast
2:16 PM 68.0 °F - 53.6 °F 60% 29.69 in 10.0 mi SSW 10.4 mph 23.0 mph N/A   Overcast
2:37 PM 68.0 °F - 53.6 °F 60% 29.68 in 10.0 mi SSW 13.8 mph 26.5 mph N/A   Overcast
2:56 PM 68.0 °F - 51.8 °F 56% 29.68 in 10.0 mi SSW 16.1 mph 26.5 mph N/A   Overcast
3:16 PM 68.0 °F - 51.8 °F 56% 29.67 in 10.0 mi SSW 13.8 mph 23.0 mph N/A   Overcast
3:37 PM 69.8 °F - 51.8 °F 53% 29.67 in 10.0 mi SSW 13.8 mph 27.6 mph N/A   Overcast
3:56 PM 69.8 °F - 51.8 °F 53% 29.67 in 10.0 mi SSW 18.4 mph 28.8 mph N/A   Overcast
4:16 PM 69.8 °F - 51.8 °F 53% 29.67 in 10.0 mi SSW 12.7 mph 24.2 mph N/A   Overcast
4:37 PM 69.8 °F - 51.8 °F 53% 29.66 in 10.0 mi SSW 9.2 mph 20.7 mph N/A   Overcast
4:56 PM 69.8 °F - 51.8 °F 53% 29.66 in 10.0 mi SSW 10.4 mph 16.1 mph N/A   Overcast
5:16 PM 68.0 °F - 51.8 °F 56% 29.65 in 10.0 mi South 8.1 mph - N/A   Overcast
5:37 PM 68.0 °F - 51.8 °F 56% 29.65 in 10.0 mi South 11.5 mph 19.6 mph N/A   Overcast
5:56 PM 68.0 °F - 51.8 °F 56% 29.63 in 10.0 mi South 9.2 mph 16.1 mph N/A   Mostly Cloudy
6:17 PM 68.0 °F - 50.0 °F 52% 29.63 in 10.0 mi South 8.1 mph - N/A   Mostly Cloudy
6:37 PM 68.0 °F - 50.0 °F 52% 29.63 in 10.0 mi SSW 9.2 mph 17.3 mph N/A   Overcast
6:56 PM 68.0 °F - 50.0 °F 52% 29.62 in 10.0 mi South 8.1 mph - N/A   Overcast
7:17 PM 68.0 °F - 51.8 °F 56% 29.62 in 10.0 mi SSW 9.2 mph 18.4 mph N/A   Overcast
7:37 PM 69.8 °F - 51.8 °F 53% 29.63 in 10.0 mi SSW 9.2 mph 21.9 mph N/A   Overcast
7:56 PM 66.2 °F - 53.6 °F 64% 29.63 in 10.0 mi South 17.3 mph 27.6 mph 0.01 in Rain Rain
8:17 PM 64.4 °F - 55.4 °F 73% 29.61 in 7.0 mi South 16.1 mph 29.9 mph 0.04 in Rain Rain
8:37 PM 62.6 °F - 57.2 °F 82% 29.63 in 10.0 mi SSW 12.7 mph 27.6 mph 0.06 in Rain Rain
8:56 PM 62.6 °F - 59.0 °F 88% 29.64 in 10.0 mi SSW 12.7 mph 21.9 mph 0.09 in Rain Rain
9:17 PM 62.6 °F - 59.0 °F 88% 29.61 in 7.0 mi SSW 11.5 mph 26.5 mph 0.07 in Rain Heavy Rain
9:37 PM 62.6 °F - 59.0 °F 88% 29.60 in 7.0 mi South 6.9 mph - 0.15 in Rain Rain
9:56 PM 60.8 °F - 59.0 °F 94% 29.58 in 10.0 mi South 8.1 mph - 0.16 in Rain Light Rain
10:17 PM 60.8 °F - 59.0 °F 94% 29.56 in 7.0 mi SSE 9.2 mph 16.1 mph 0.01 in Rain Heavy Rain
10:37 PM 62.6 °F - 59.0 °F 88% 29.54 in 10.0 mi South 13.8 mph 27.6 mph 0.03 in Rain Light Rain
10:56 PM 62.6 °F - 59.0 °F 88% 29.53 in 10.0 mi South 11.5 mph 17.3 mph 0.03 in   Mostly Cloudy
11:17 PM 62.6 °F - 59.0 °F 88% 29.52 in 10.0 mi South 12.7 mph 23.0 mph N/A   Scattered Clouds
11:36 PM 62.6 °F - 59.0 °F 88% 29.51 in 10.0 mi SSW 15.0 mph 21.9 mph 0.01 in   Overcast
11:56 PM 62.6 °F - 57.2 °F 82% 29.57 in 10.0 mi West 34.5 mph 46.0 mph 0.01 in Rain Light Rain